Chillicothe, MO

12:27 PM CDT on April 30, 2017 (GMT -0500)
Chillicothe

Weather History for KCDJ - October, 2013

Change the Weather History Date:

Wednesday, October 2, 2013

  Actual Average (KIRK) Record (KIRK)
Temperature  
Mean Temperature 72 °F -  
Max Temperature 86 °F 72 °F 94 °F (1953)
Min Temperature 59 °F 49 °F 26 °F (1974)
Cooling Degree Days 6    
Growing Degree Days 22 (Base 50)    
Moisture  
Dew Point 62 °F    
Average Humidity 75    
Maximum Humidity 93    
Minimum Humidity 49    
Precipitation  
Precipitation 0.00 in - - ()
Sea Level Pressure  
Sea Level Pressure 29.95 in    
Wind  
Wind Speed 3 mph (South)    
Max Wind Speed 10 mph    
Max Gust Speed -    
Averages and records for this station are not official NWS values.
T = Trace of Precipitation, MM = Missing Value Source: NWS Daily Summary

Daily Weather History Graph

Daily Weather History Graph

Search for Another Location

Airport or City:

Trip Planner

Search our weather history database for the weather conditions in past years. The results will help you decide how hot, cold, wet, or windy it might be!

Date:

Astronomy

Oct. 02, 2013 Rise Set
Actual Time 7:11 AM CDT 6:54 PM CDT
Civil Twilight 6:44 AM CDT 7:21 PM CDT
Nautical Twilight 6:13 AM CDT 7:52 PM CDT
Astronomical Twilight 5:41 AM CDT 8:24 PM CDT
Moon 4:45 AM CDT (10/2) 5:30 PM CDT (10/2)
Length of Visible Light 12h 36m
Length of Day
11h 42m
Waning Crescent, 6% of the Moon is Illuminated
Oct 2
Waning Crescent
Oct 4
New
Oct 11
First Quarter
Oct 18
Full
Oct 26
Last Quarter

Hourly Weather History & Observations

Time (CDT) Temp. Heat Index Dew Point Humidity Pressure Visibility Wind Dir Wind Speed Gust Speed Precip Events Conditions
12:52 AM 62.1 °F - 59.0 °F 90% 29.97 in - Calm Calm - N/A   Unknown
1:52 AM 61.0 °F - 57.9 °F 90% 29.98 in - Calm Calm - N/A   Unknown
2:52 AM 60.1 °F - 57.0 °F 90% 29.98 in - Calm Calm - N/A   Unknown
3:52 AM 59.0 °F - 57.0 °F 93% 29.98 in - Calm Calm - N/A   Unknown
4:52 AM 59.0 °F - 55.9 °F 90% 29.98 in - Calm Calm - N/A   Unknown
5:52 AM 60.1 °F - 57.9 °F 93% 29.98 in - Calm Calm - N/A   Unknown
6:52 AM 59.0 °F - 57.0 °F 93% 30.01 in - Calm Calm - N/A   Unknown
7:52 AM 62.1 °F - 59.0 °F 90% 30.01 in - Calm Calm - N/A   Unknown
8:52 AM 68.0 °F - 62.1 °F 81% 30.02 in - SE 3.5 mph - N/A   Unknown
9:52 AM 72.0 °F - 64.0 °F 76% 30.01 in - South 3.5 mph - N/A   Unknown
10:52 AM 75.9 °F - 66.9 °F 74% 30.01 in - South 4.6 mph - N/A   Unknown
11:52 AM 77.0 °F - 68.0 °F 74% 29.99 in - SSE 5.8 mph - N/A   Unknown
12:52 PM 81.0 °F 83.3 °F 66.9 °F 62% 29.97 in - South 9.2 mph - N/A   Unknown
1:52 PM 84.0 °F 85.4 °F 64.0 °F 51% 29.93 in - South 8.1 mph - N/A   Unknown
2:52 PM 84.0 °F 85.4 °F 64.0 °F 51% 29.91 in - SSE 10.4 mph - N/A   Unknown
3:52 PM 84.9 °F 86.1 °F 64.0 °F 49% 29.89 in - South 8.1 mph - N/A   Unknown
4:52 PM 84.9 °F 86.1 °F 64.0 °F 49% 29.88 in - SSW 8.1 mph - N/A   Unknown
5:52 PM 84.0 °F 85.4 °F 64.0 °F 51% 29.88 in - South 6.9 mph - N/A   Unknown
6:52 PM 81.0 °F 83.0 °F 66.0 °F 60% 29.88 in - SE 5.8 mph - N/A   Unknown
7:52 PM 77.0 °F - 64.9 °F 66% 29.89 in - South 8.1 mph - N/A   Unknown
8:52 PM 73.0 °F - 64.0 °F 73% 29.90 in - South 6.9 mph - N/A   Unknown
9:52 PM 72.0 °F - 64.9 °F 78% 29.90 in - Calm Calm - N/A   Unknown
10:52 PM 71.1 °F - 64.9 °F 81% 29.89 in - South 5.8 mph - N/A   Unknown
11:52 PM 70.0 °F - 66.0 °F 87% 29.89 in - South 4.6 mph - N/A   Unknown